Погода в Черкезкёе

Турция     41°16′53″N   28°00′03″E
темп.,
°C
ветер,
м/с
пор.,
м/с
влажн.,
%
обл.,
%
осадки,
мм/ч
давл.,
гПа
погр.,
м
11 мая, вт
вт1100:00+8св511760 0.0 1021299
03:00+7св49840 0.0 1020161
06:00+7св48830 0.0 1020132
09:00+13всв68610 0.0 1019748
12:00+15всв78510 0.0 1019997
15:00+16св77490 0.0 1018927
18:00+14св69590 0.0 1017676
21:00+8св410820 0.0 1016194
12 мая, ср
ср1200:00+7св48840 0.0 1015125
03:00+7ссв34870 0.0 101449
06:00+6св33870 0.0 101332
09:00+14всв35643 0.0 1012447
12:00+18в335436 0.0 1011940
15:00+20в325463 0.0 10101060
18:00+17всв556385 0.0 1009443
21:00+11всв4980100 0.0 1009146
13 мая, чт
чт1300:00+11всв467970 0.0 100996
03:00+10всв22795 0.0 100823
06:00+10св11780 0.0 100810
09:00+17юз23610 0.0 1008266
12:00+21зюз45485 0.0 1008868
15:00+23юз45490 0.0 10081300
18:00+22юз23550 0.0 1007545
21:00+15юз22660 0.0 100814
14 мая, пт
пт1400:00+14ю22740 0.0 100814
03:00+13з11760 0.0 100910
06:00+14зюз22863 0.0 100914
09:00+19зюз46680 0.0 1011513
12:00+22юз46550 0.0 10111331
15:00+22юз57582 0.3 10111355
18:00+22юз610630 0.1 10111149
21:00+15зюз228323 0.1 101316
15 мая, сб
сб1500:00+13з228541 0.0 101419
03:00+14зюз3577100 0.0 101474
06:00+13зюз2280100 0.0 101422
09:00+19юз23601 0.0 1014277
12:00+23ю33484 0.0 1012939
15:00+24ю444383 0.0 10111036
18:00+23юв2257100 0.0 1009214
21:00+18в3464100 0.0 100864